Regional Weather Roundup
Issued by NWS State College, PA

Current Version | Previous Version | Text Only | Print | Product List | Glossary On
Versions: 1 2 3 4 5 6 7 8 9 10 11 12 13 14 15 16 17 18 19 20 21 22 23 24 25 26 27 28 29 30 31 32 33 34 35 36 37 38 39 40 41 42 43 44 45 46 47 48 49 50
000
ASUS41 KCTP 152110
RWRCTP

REGIONAL WEATHER ROUNDUP
NATIONAL WEATHER SERVICE STATE COLLEGE PA
500 PM EDT TUE OCT 15 2019

Note: "fair" indicates few or no clouds below 12,000 feet with no
significant weather and/or obstructions to visibility.

* = STATION THAT DOES NOT REPORT PRECIPITATION /E.G. RAIN...SNOW...ETC/
    THUNDER OR FOG.

PAZ002>004-007>009-013>016-020>023-029>032-152200-
WESTERN PENNSYLVANIA

CITY           SKY/WX    TMP DP  RH WIND       PRES   REMARKS
ERIE           FAIR      67  39  35 S10       29.91F
MEADVILLE      FAIR      63  38  39 VRB5      29.93F
FRANKLIN*      FAIR      62  39  42 S12       29.95F
NEW CASTLE     FAIR      68  43  40 VRB6      29.94F
BEAVER COUNTY  FAIR      67  40  37 E6        29.94
BUTLER*        FAIR      65  39  38 S10       29.96F
PITTSBURGH INT FAIR      67  38  34 SE13      29.94F
PITTSBURGH     FAIR      67  36  31 S9        29.95F
INDIANA*       SUNNY     66  45  45 S7G16     30.01F
LATROBE        SUNNY     70  36  28 S6        29.96F
WASHINGTON CO* FAIR      69  36  29 S9        29.97F
$$

PAZ004>006-010>012-017>019-024>028-033>037-041-042-045-046-049>053-152200-
CENTRAL PENNSYLVANIA

CITY           SKY/WX    TMP DP  RH WIND       PRES   REMARKS
BRADFORD       FAIR      61  34  36 VRB7G18   29.98F
DUBOIS         FAIR      62  37  39 VRB7      29.98F
CLEARFIELD     FAIR      62  41  46 S5        30.01F
JOHNSTOWN      FAIR      62  35  36 S12       30.00F
ALTOONA        FAIR      64  39  39 S10G18    30.02F
STATE COLLEGE  SUNNY     61  41  48 S7        30.03F
WILLIAMSPORT   FAIR      62  39  42 SE10      30.03F
SELINSGROVE    FAIR      63  40  42 SE8       30.05F
FT INDIANTOWN  FAIR      65  39  39 SW5       30.06F
CAPITAL CITY   FAIR      68  41  37 E6        30.05F
HARRISBURG     FAIR      67  44  43 SE3       30.04F
YORK           FAIR      68  40  35 VRB3      30.04F
$$

PAZ038>040-043-044-047-048-054-055-060>062-067>071-152200-
EASTERN PENNSYLVANIA

CITY           SKY/WX    TMP DP  RH WIND       PRES   REMARKS
SCRANTON       FAIR      63  37  38 W6        30.05F
MOUNT POCONO   FAIR      57  35  43 S9        30.07F
ALLENTOWN      FAIR      65  40  39 SW6       30.07F
QUAKERTOWN*    CLEAR     66  39  37 S5        30.08F
READING        FAIR      65  40  39 S7        30.06F
LANCASTER      FAIR      67  40  37 VRB3      30.06F
COATESVILLE    FAIR      64  41  42 S5        30.08F
POTTSTOWN      FAIR      63  40  42 CALM      30.09F
BLUE BELL      FAIR      65  40  40 CALM      30.08F
DOYLESTOWN     FAIR      66  36  32 CALM      30.07F
WILLOW GROVE   NOT AVBL
NORTH PHILA    FAIR      68  37  32 VRB3      30.09F
PHILADELPHIA   FAIR      67  37  33 VRB5      30.08F
$$



USA.gov is the U.S. government's official web portal to all federal, state and local government web resources and services.